Location: Oshawa
(43.9000°N, 78.8670°W)
Time: 21:02:23
(UTC-04:00)

Courier 1B - All Passes

Search period start: 27 August 2014 00:00
Search period end: 06 September 2014 00:00
Orbit: 963 x 1209 km, 28.3° (Epoch: 25 August)

Date Brightness Start Highest point End Pass type
(mag) Time Alt. Az. Time Alt. Az. Time Alt. Az.
27 Aug - 09:56:51 10° SSW 10:00:30 15° SSE 10:04:02 10° SE daylight
27 Aug - 11:48:30 10° SW 11:53:30 21° S 11:58:18 10° SE daylight
27 Aug - 13:42:07 10° SW 13:46:28 18° SSW 13:50:42 10° SSE daylight
28 Aug - 09:04:20 10° S 09:07:00 12° SSE 09:09:38 10° SE daylight
28 Aug - 10:55:00 10° SW 11:00:00 20° S 11:04:49 10° SE daylight
28 Aug - 12:48:14 10° SW 12:53:02 20° S 12:57:40 10° SE daylight
28 Aug - 14:43:56 10° SW 14:45:51 11° SSW 14:47:44 10° S daylight
29 Aug - 10:01:36 10° SSW 10:06:29 19° S 10:11:11 10° SE daylight
29 Aug - 11:54:25 10° SW 11:59:33 21° S 12:04:29 10° SE daylight
29 Aug - 13:49:03 10° SW 13:52:27 14° SSW 13:55:47 10° SSE daylight
30 Aug - 09:08:22 10° SSW 09:12:57 17° SSE 09:17:24 10° SE daylight
30 Aug - 11:00:42 10° SW 11:06:02 22° S 11:11:10 10° SE daylight
30 Aug - 12:54:46 10° SW 12:59:02 17° SSW 13:03:10 10° SSE daylight
31 Aug - 08:15:23 10° SSW 08:19:25 15° SSE 08:23:22 10° SE daylight
31 Aug - 10:07:03 10° SW 10:12:30 22° S 10:17:44 10° SE daylight
31 Aug - 12:00:41 10° SW 12:05:34 20° S 12:10:16 10° SSE daylight
01 Sep - 07:22:51 10° S 07:25:53 13° SSE 07:28:53 10° SE daylight
01 Sep - 09:13:31 10° SW 09:18:57 21° S 09:24:10 10° SE daylight
01 Sep - 11:06:45 10° SW 11:12:04 22° S 11:17:10 10° SE daylight
01 Sep - 13:02:03 10° SW 13:04:58 13° SSW 13:07:49 10° S daylight
02 Sep - 08:20:07 10° SSW 08:25:22 20° SSE 08:30:28 10° SE daylight
02 Sep - 10:12:55 10° SW 10:18:32 23° S 10:23:55 10° SE daylight
02 Sep - 12:07:25 10° SW 12:11:32 16° SSW 12:15:31 10° SSE daylight
03 Sep - 07:26:55 10° SSW 07:31:47 18° SSE 07:36:33 10° SE daylight
03 Sep - 09:19:11 10° SW 09:24:57 24° S 09:30:31 10° SE daylight
03 Sep - 11:13:10 10° SW 11:18:03 19° SSW 11:22:46 10° SSE daylight
04 Sep - 06:34:00 10° SSW 06:38:13 15° SSE 06:42:23 10° SE daylight
04 Sep - 08:25:33 10° SW 08:31:21 23° S 08:36:59 10° SE daylight
04 Sep - 10:19:06 10° SW 10:24:31 21° S 10:29:44 10° SE daylight
04 Sep - 12:15:19 10° SW 12:17:24 11° SSW 12:19:28 10° S daylight
05 Sep - 05:41:36 10° S 05:44:40 13° SSE 05:47:43 10° SE visible
05 Sep - 07:32:04 10° SW 07:37:44 22° S 07:43:18 10° ESE daylight
05 Sep - 09:25:11 10° SW 09:30:57 23° S 09:36:31 10° SE daylight
05 Sep - 11:20:10 10° SW 11:23:57 15° SSW 11:27:39 10° S daylight
